Regional Weather Roundup
Issued by NWS

Home | Current Version | Previous Version | Text Only | Print | Product List | Glossary On
Versions: 1 2 3 4 5 6 7 8 9 10 11 12 13 14 15 16 17 18 19 20 21 22 23 24 25 26 27 28 29 30 31 32 33 34 35 36 37 38 39 40 41 42 43 44 45 46 47 48 49 50
000
ASCA44 KEWX 231520
RWRMX

LATIN AMERICA AND CARIBBEAN REGIONAL WEATHER ROUNDUP
NATIONAL WEATHER SERVICE AUSTIN/SAN ANTONIO TX
1000 AM CDT SUN APR 23 2017

NOTE: "FAIR" INDICATED FEW OR NO CLOUDS BELOW 12,000 FEET WITH NO
SIGNIFICANT WEATHER AND/OR OBSTRUCTIONS TO VISIBILITY.

BAJA CALIFORNIA

CITY           SKY/WX    TMP DP  RH WIND       PRES   REMARKS
LORETO         SUNNY     82  52  34 CALM      29.80R
LA PAZ         SUNNY     66  55  68 S12       29.87R
MEXICALI       MOSUNNY   70  43  37 SE3       29.76R
S.J. DEL CABO  SUNNY     77  30  18 W6        29.84S
TIJUANA        CLOUDY    61  54  77 CALM      29.90S

NORTHWESTERN MEXICO

CITY           SKY/WX    TMP DP  RH WIND       PRES   REMARKS
CULIACAN       PTSUNNY   73  68  83 CALM      29.84R
DURANGO        PTSUNNY   68  32  26 N7        30.20R
GUAYMAS        SUNNY     72  46  40 CALM      29.77R
HERMOSILLO     SUNNY     79  32  18 NW6       29.83R
CD. JUAREZ     SUNNY     57  41  54 E21       30.14R
LOS MOCHIS     MOSUNNY   70  63  78 CALM      29.84
OBREGON        MOSUNNY   72  61  68 E12       29.81R

NORTHEASTERN MEXICO

CITY           SKY/WX    TMP DP  RH WIND       PRES   REMARKS
CHIHUAHUA      MOSUNNY   57  34  41 NE12      30.24R
MATAMOROS      CLOUDY    64  50  59 NW15      30.16R
MONCLOVA         N/A    N/A N/A N/A MISG        N/A
MONTERREY      CLOUDY    64  45  48 N13       30.25R
NUEVO LAREDO   PTSUNNY   64  46  52 N7        30.24S
PIEDRAS NEGRAS MOSUNNY   64  45  48 NW6       30.27
REYNOSA        CLOUDY    59  45  58 NW9G21    30.21R
SALTILLO       CLOUDY    52  48  87 NE10      30.33R FOG
TORREON        MOSUNNY   70  54  56 NE7       30.17R
CD. VICTORIA   CLOUDY    61  61 100 N14G26    30.20R

WESTERN MEXICO

CITY           SKY/WX    TMP DP  RH WIND       PRES   REMARKS
AGUASCALIENTES SUNNY     68  43  40 NE12      30.28R
COLIMA         SUNNY     72  61  68 CALM      29.97R
DEL BAJIO      MOSUNNY   68  43  40 N7        30.30R
GUADALAJARA    MOSUNNY   70  46  43 E7        30.16
MANZANILLO     MOSUNNY   77  70  78 S6        29.85R
MAZATLAN       MOSUNNY   77  70  78 CALM      29.84R
P. VALLARTA    SUNNY     77  68  73 CALM      29.84R
URUAPAN        SUNNY     66  43  42 CALM      30.13R
ZACATECAS      MOSUNNY   66  37  34 SE12      30.29S

CENTRAL MEXICO

CITY           SKY/WX    TMP DP  RH WIND       PRES   REMARKS
CUERNAVACA     SUNNY     77  43  29 CALM      30.10R
MEXICO CITY    MOSUNNY   61  41  48 E7        30.35R
MORELIA        SUNNY     66  41  39 N3        30.23R
POZA RICA      PTSUNNY   81  72  74 NE5       30.09R
PUEBLA         SUNNY     59  41  51 N7        30.33R
QUERETARO      SUNNY     64  45  48 E17       30.34R
S. LUIS POTOSI PTSUNNY   63  46  55 E12       30.29R
TAMPICO        LGT RAIN  75  70  83 N23       30.08R
TOLUCA         SUNNY     55  34  44 NW3       30.38R

SOUTHERN MEXICO

CITY           SKY/WX    TMP DP  RH WIND       PRES   REMARKS
ACAPULCO       MOSUNNY   79  68  69 N3        29.88R
B. DE HUATULCO   N/A    N/A N/A N/A MISG        N/A
OAXACA         PTSUNNY   70  52  52 N3        30.22R
P. ESCONDIDO   MOSUNNY   81  66  61 CALM      29.98R
VERACRUZ       PTSUNNY   81  72  74 NE9       30.01R
ZIHUATANEJO    CLOUDY    79  68  69 SW3       29.89R

YUCATAN PENINSULA

CITY           SKY/WX    TMP DP  RH WIND       PRES   REMARKS
CAMPECHE       SUNNY     82  72  69 CALM      29.91R
CANCUN         PTSUNNY   82  72  69 N5        29.90R
CHETUMAL       SUNNY     81  73  78 CALM      29.91R
CD. DEL CARMEN MOSUNNY   82  72  69 N9        29.95R
COZUMEL        MOSUNNY   81  75  83 N7        29.88S
MERIDA         PTSUNNY   84  68  58 N5        29.94R
MINATITLAN     MOSUNNY   81  75  83 N12       29.97R
TAPACHULA      MOSUNNY   86  75  70 N12       29.86R HX  95
TUX. GUTIERREZ SUNNY     81  64  57 W10       29.97R FOG
VILLAHERMOSA   MOSUNNY   81  70  69 NE6       29.99R

CENTRAL AMERICA

CITY           SKY/WX    TMP DP  RH WIND       PRES   REMARKS
BELIZE CITY    PTSUNNY   84  77  79 CALM      29.90R HX  94
MANAGUA        MOSUNNY   88  73  62 N5        29.83S HX  96

CARIBBEAN

CITY           SKY/WX    TMP DP  RH WIND       PRES   REMARKS
ARUBA          MOSUNNY   90  75  62 E24G36    29.83  HX 100
CURACAO        PTSUNNY   84  75  74 E16       29.89S HX  92
KINGSTON       PTSUNNY   82  75  78 SE21      29.89R
NASSAU         LGT RAIN  77  75  94 E12       29.88F
SAN JUAN       MOSUNNY   86  70  58 E18       29.99S HX  90
SANTO DOMINGO  PTSUNNY   82  75  78 E17       29.94S
ST. CROIX      MOSUNNY   84  73  70 E18       30.01  HX  91
ST. KITTS      MOSUNNY   82  72  69 E18       30.00S
ST. MAARTEN    PTSUNNY   81  68  65 E14       30.00F
ST. THOMAS     SUNNY     84  68  58 SE17G25   30.00

$$




USA.gov is the U.S. government's official web portal to all federal, state and local government web resources and services.